TimeCST,TemperatureF,Dew PointF,Humidity,Sea Level PressureIn,VisibilityMPH,Wind Direction,Wind SpeedMPH,Gust SpeedMPH,PrecipitationIn,Events,Conditions,WindDirDegrees,DateUTC
12:50 AM,39.2,37.4,93,30.00,7.0,SSE,6.9,-,N/A,,Clear,160,1999-01-16 06:50:00
1:50 AM,42.8,42.8,100,30.02,7.0,South,11.5,18.4,N/A,,Overcast,170,1999-01-16 07:50:00
2:50 AM,46.4,42.8,87,30.02,6.0,South,9.2,-,N/A,,Overcast,180,1999-01-16 08:50:00
3:50 AM,46.4,44.6,93,30.02,6.0,SE,6.9,-,N/A,,Overcast,140,1999-01-16 09:50:00
4:50 AM,46.4,44.6,93,30.00,6.0,ESE,6.9,-,N/A,,Overcast,120,1999-01-16 10:50:00
5:50 AM,46.4,44.6,93,30.00,6.0,ESE,6.9,-,N/A,,Overcast,120,1999-01-16 11:50:00
6:50 AM,44.6,42.8,93,30.00,6.0,ESE,6.9,-,N/A,,Mostly Cloudy,120,1999-01-16 12:50:00
7:55 AM,46.4,44.6,93,30.02,5.0,ESE,6.9,-,N/A,,Mostly Cloudy,120,1999-01-16 13:55:00
8:59 AM,51.8,48.2,88,30.03,6.0,SE,9.2,-,N/A,,Overcast,140,1999-01-16 14:59:00
10:50 AM,62.6,53.6,72,30.03,9.0,South,10.4,-,N/A,,Clear,190,1999-01-16 16:50:00
11:50 AM,66.2,51.8,60,30.01,10.0,South,11.5,-,N/A,,Clear,180,1999-01-16 17:50:00
12:52 PM,69.8,50.0,49,29.97,10.0,South,9.2,-,N/A,,Clear,170,1999-01-16 18:52:00
1:50 PM,69.8,51.8,53,29.95,10.0,South,11.5,-,N/A,,Clear,180,1999-01-16 19:50:00
4:47 PM,68.0,51.8,56,29.91,10.0,South,11.5,-,N/A,,Partly Cloudy,170,1999-01-16 22:47:00
5:47 PM,60.8,53.6,77,29.90,10.0,SE,11.5,-,N/A,,Overcast,140,1999-01-16 23:47:00
6:50 PM,62.6,53.6,72,29.91,10.0,SE,9.2,-,N/A,,Mostly Cloudy,140,1999-01-17 00:50:00
7:50 PM,59.0,53.6,82,29.91,10.0,SSE,9.2,-,N/A,,Partly Cloudy,150,1999-01-17 01:50:00
8:50 PM,60.8,55.4,82,29.91,10.0,SSE,9.2,-,N/A,,Clear,160,1999-01-17 02:50:00
9:50 PM,57.2,53.6,88,29.92,10.0,SSE,9.2,-,N/A,,Mostly Cloudy,150,1999-01-17 03:50:00
10:50 PM,60.8,55.4,82,29.92,10.0,SSE,13.8,-,N/A,,Overcast,160,1999-01-17 04:50:00
11:50 PM,60.8,55.4,82,29.93,7.0,SSE,6.9,-,N/A,,Overcast,160,1999-01-17 05:50:00